Rock Springs, WY

3:30 PM MDT on April 25, 2018 (GMT -0600)
Rock Springs-Sweetwater

Weather History for KRKS - May, 2013

Change the Weather History Date:

Tuesday, May 28, 2013

  Actual Average Record
Temperature  
Mean Temperature 54 °F 54 °F  
Max Temperature 65 °F 68 °F 89 °F (2003)
Min Temperature 43 °F 41 °F 29 °F (1954)
Degree Days  
Heating Degree Days 11 11  
Month to date heating degree days 326 413  
Since 1 July heating degree days 7539 7945  
Cooling Degree Days 0 0  
Month to date cooling degree days 1 0  
Year to date cooling degree days 1 0  
Growing Degree Days 3 (Base 50)    
Moisture  
Dew Point 29 °F    
Average Humidity 55    
Maximum Humidity 89    
Minimum Humidity 21    
Precipitation  
Precipitation T in 0.04 in 0.60 in (2011)
Month to date precipitation 0.56 1.10  
Year to date precipitation 0.56 3.62  
Sea Level Pressure  
Sea Level Pressure 29.67 in    
Wind  
Wind Speed 13 mph (SW)    
Max Wind Speed 44 mph    
Max Gust Speed 51 mph    
Visibility 10 miles    
Events Rain    
T = Trace of Precipitation, MM = Missing Value Source: NWS Daily Summary

Daily Weather History Graph

Daily Weather History Graph

Search for Another Location

Airport or City:

Astronomy

May. 28, 2013 Rise Set
Actual Time 5:46 AM MDT 8:41 PM MDT
Civil Twilight 5:13 AM MDT 9:14 PM MDT
Nautical Twilight 4:31 AM MDT 9:56 PM MDT
Astronomical Twilight 3:43 AM MDT 10:44 PM MDT
Moon No Moon Rise 9:39 AM MDT (5/28)
Length of Visible Light 16h 00m
Length of Day
14h 54m
Waning Gibbous, 82% of the Moon is Illuminated
May 28
Waning Gibbous
May 31
Last Quarter
Jun 8
New
Jun 16
First Quarter
Jun 23
Full

Hourly Weather History & Observations

Time (MDT) Temp. Windchill Dew Point Humidity Pressure Visibility Wind Dir Wind Speed Gust Speed Precip Events Conditions
12:54 AM 51.1 °F - 14.0 °F 23% 29.71 in 10.0 mi Calm Calm - N/A   Clear
1:54 AM 48.0 °F - 15.1 °F 27% 29.70 in 10.0 mi WSW 6.9 mph - N/A   Clear
2:54 AM 48.0 °F - 16.0 °F 28% 29.70 in 10.0 mi Calm Calm - N/A   Clear
3:54 AM 46.9 °F - 17.1 °F 30% 29.70 in 10.0 mi WNW 4.6 mph - N/A   Mostly Cloudy
4:54 AM 44.1 °F - 19.0 °F 37% 29.70 in 10.0 mi Calm Calm - N/A   Scattered Clouds
5:54 AM 45.0 °F 43.5 °F 21.0 °F 39% 29.70 in 10.0 mi South 3.5 mph - N/A   Overcast
6:54 AM 46.9 °F - 21.9 °F 37% 29.68 in 10.0 mi SSE 6.9 mph - N/A   Overcast
7:54 AM 48.9 °F - 23.0 °F 36% 29.68 in 10.0 mi SSE 6.9 mph - N/A   Overcast
8:54 AM 50.0 °F - 33.1 °F 52% 29.68 in 10.0 mi SE 8.1 mph - N/A   Overcast
9:54 AM 55.0 °F - 34.0 °F 45% 29.62 in 10.0 mi SE 12.7 mph - N/A   Partly Cloudy
10:54 AM 60.1 °F - 33.1 °F 36% 29.58 in 10.0 mi SSE 13.8 mph 20.7 mph N/A   Clear
11:54 AM 63.0 °F - 23.0 °F 22% 29.56 in 10.0 mi South 16.1 mph 27.6 mph N/A   Overcast
12:13 PM 62.6 °F - 24.8 °F 24% 29.76 in 10.0 mi SSW 15.0 mph 29.9 mph N/A   Mostly Cloudy
12:54 PM 60.1 °F - 25.0 °F 26% 29.57 in 10.0 mi SSW 19.6 mph 42.6 mph N/A   Overcast
1:21 PM 55.4 °F - 33.8 °F 44% 29.79 in 10.0 mi West 26.5 mph 39.1 mph 0.00 in Rain Light Rain
1:54 PM 53.1 °F - 36.0 °F 52% 29.62 in 10.0 mi West 8.1 mph - 0.00 in   Overcast
2:54 PM 57.0 °F - 34.0 °F 42% 29.60 in 10.0 mi WSW 11.5 mph 20.7 mph N/A   Clear
3:54 PM 60.1 °F - 32.0 °F 35% 29.57 in 10.0 mi SSW 20.7 mph 26.5 mph N/A   Partly Cloudy
4:54 PM 55.9 °F - 37.0 °F 49% 29.61 in 10.0 mi West 39.1 mph 50.6 mph N/A   Mostly Cloudy
5:54 PM 48.9 °F - 37.0 °F 64% 29.69 in 10.0 mi West 25.3 mph 31.1 mph N/A   Clear
6:54 PM 48.0 °F - 37.0 °F 66% 29.70 in 10.0 mi West 16.1 mph - N/A   Clear
7:54 PM 46.9 °F - 37.9 °F 71% 29.70 in 10.0 mi WSW 11.5 mph - 0.00 in   Overcast
8:54 PM 44.1 °F 37.4 °F 41.0 °F 89% 29.71 in 10.0 mi SW 13.8 mph - 0.00 in Rain Light Rain
9:54 PM 43.0 °F 35.1 °F 39.9 °F 89% 29.70 in 10.0 mi SW 17.3 mph - 0.00 in   Overcast
10:54 PM 43.0 °F 35.7 °F 39.9 °F 89% 29.67 in 10.0 mi SW 15.0 mph - N/A   Overcast
11:54 PM 43.0 °F 35.4 °F 39.9 °F 89% 29.65 in 10.0 mi SW 16.1 mph - N/A   Overcast